Погода в Туранджи

Новая Зеландия     38°59′22″S   175°48′39″E
темп.,
°C
ветер,
м/с
пор.,
м/с
влажн.,
%
обл.,
%
осадки,
мм/ч
давл.,
гПа
погр.,
м
13 апреля, вт
вт1300:00+15ссв1110081 0.9 101190
03:00+14зсз129990 0.4 1011130
06:00+14сз12100100 0.5 1010101
09:00+15зсз129893 0.2 1010198
12:00+18сз367193 0.5 10081209
15:00+16зсз377356 0.6 10071164
18:00+12з278595 0.7 1006390
21:00+11зсз259295 0.3 1007440
14 апреля, ср
ср1400:00+10зсз2695100 0.6 1006494
03:00+10з2687100 0.1 1005614
06:00+8з249392 0.1 1005247
09:00+11зсз1373100 0.0 1005832
12:00+10ю1193100 1.7 1005166
15:00+10ююв019674 1.1 1004143
18:00+8ю00985 1.1 100412
21:00+7ююз11985 0.0 100729
15 апреля, чт
чт1500:00+6ююз11973 0.0 100732
03:00+5юз22975 0.0 100736
06:00+5юз129925 0.0 100841
09:00+10з268242 0.0 1007691
12:00+15з49555 0.0 10061326
15:00+14з487256 0.1 10041143
18:00+11з289393 0.4 1006824
21:00+11з2994100 0.1 1007757
16 апреля, пт
пт1600:00+11зсз159897 0.6 1008363
03:00+10з149888 0.4 1007182
06:00+9з259574 0.5 1008312
09:00+11з1693100 0.1 1009717
12:00+13з387887 0.3 10081039
15:00+14з4107214 0.3 10051258
18:00+10з3118942 0.4 1006884
21:00+11з3108296 0.1 10071041
17 апреля, сб
сб1700:00+10з399467 0.8 1007894
03:00+8зюз3108874 0.5 1008951
06:00+6зюз279068 0.5 1010643
09:00
12:00+13зюз23445 0.1 10121661
15:00+13зюз34423 0.0 10111603
18:00+8зюз24670 0.0 1014168
21:00+5юз23861 0.0 101781